www.pogodaiklimat.ru

Погода и климат >> Архив погоды >> Великобритания >> Aberdaron


ПОГОДА в Aberdaron

  • Прогноз погоды в Aberdaron
  • Монитор погоды в Aberdaron
  • Климат города

АРХИВ ПОГОДЫ в Aberdaron

Время (UTC), дата Ветер
(напр.,м/с)
 
Видим.   Явления Облачность Т
(С)
Тd
(С)
f
(%)
Тe
(С)
Тes
(С)
Комфортность P
(гПа)
Po
(гПа)
Тmin
(С)
Tmax
(С)
R
(мм)
R24
(мм)
S
(см)
20 12.10 Ю 13
{16}
6000 м н/о +13.9 +13.9 100 +10 +10 1016.6 1005.2
19 12.10 Ю 12
{16}
300 м н/о +13.3 +13.3 100 +10 +10 1017.1 1005.7
21 12.10 Ю 13
{17}
5000 м н/о +14.1 +14.0 99 +11 +11 1016.2 1004.8
22 12.10 Ю 13
{19}
800 м н/о +14.3 +14.3 100 +11 +11 1016.1 1004.7
23 12.10 Ю 13
{16}
200 м н/о +14.4 +14.3 99 +11 +11 1015.7 1004.3
00 13.10 ЮЗ 16
{21}
200 м н/о +14.5 +14.5 100 +11 +11 1015.2 1003.8 0.6
02 13.10 Ю 14
{19}
200 м н/о +14.4 +14.4 100 +11 +11 1014.7 1003.3
01 13.10 ЮЗ 15
{20}
100 м н/о +14.4 +14.4 100 +11 +11 1015.3 1003.9
03 13.10 Ю 18
{22}
300 м н/о +14.6 +14.5 99 +11 +11 1014.3 1002.9
04 13.10 ЮЗ 16
{20}
2100 м н/о +14.6 +14.6 100 +11 +11 1014.0 1002.7
05 13.10 ЮЗ 15
{21}
4400 м н/о +14.5 +14.4 99 +11 +11 1014.0 1002.6
06 13.10 ЮЗ 16 3400 м н/о +14.6 +14.6 100 +11 +11 1013.9 1002.5 +13.2 1
08 13.10 ЮЗ 16
{21}
5000 м н/о +14.7 +14.7 100 +11 +11 1014.6 1003.3
07 13.10 ЮЗ 16
{21}
300 м н/о +14.6 +14.6 100 +11 +11 1014.1 1002.7
09 13.10 ЮЗ 15
{21}
7000 м н/о +14.8 +14.8 100 +11 +11 1014.9 1003.5
10 13.10 ЮЗ 15
{20}
8000 м н/о +14.8 +14.8 100 +11 +11 1015.4 1004.0
11 13.10 ЮЗ 17
{21}
8000 м н/о +15.0 +14.9 99 +12 +12 1015.2 1003.8
12 13.10 ЮЗ 17
{22}
2200 м н/о +14.9 +14.8 99 +11 +11 1015.7 1004.3 0.6
14 13.10 ЮЗ 15
{21}
100 м н/о +14.7 +14.7 100 +11 +11 1016.4 1005.0
13 13.10 ЮЗ 16
{21}
500 м н/о +14.7 +14.7 100 +11 +11 1015.9 1004.5
15 13.10 ЮЗ 15
{19}
200 м н/о +14.7 +14.7 100 +11 +11 1016.3 1005.0
16 13.10 ЮЗ 15
{20}
100 м н/о +14.6 +14.6 100 +11 +11 1016.4 1005.0
17 13.10 ЮЗ 15
{19}
100 м н/о +14.6 +14.6 100 +11 +11 1016.6 1005.2
18 13.10 ЮЗ 17
{21}
100 м н/о +14.6 +14.6 100 +11 +11 1016.6 1005.2 +15.0 0.6
20 13.10 ЮЗ 15
{20}
100 м н/о +14.5 +14.5 100 +11 +11 1017.5 1006.1
19 13.10 ЮЗ 16
{21}
500 м н/о +14.6 +14.5 99 +11 +11 1017.4 1006.0
21 13.10 ЮЗ 14
{19}
100 м н/о +14.5 +14.4 99 +11 +11 1017.8 1006.4
22 13.10 ЮЗ 14
{17}
100 м н/о +14.5 +14.5 100 +11 +11 1018.0 1006.6
23 13.10 ЮЗ 14
{18}
100 м н/о +14.5 +14.5 100 +11 +11 1018.2 1006.8
00 14.10 ЮЗ 14
{18}
100 м н/о +14.5 +14.5 100 +11 +11 1018.6 1007.2 0.8
02 14.10 ЮЗ 13
{16}
100 м н/о +14.5 +14.5 100 +11 +11 1019.0 1007.6
01 14.10 ЮЗ 13
{17}
<100 м н/о +14.5 +14.5 100 +11 +11 1019.1 1007.7
03 14.10 ЮЗ 14
{16}
100 м н/о +14.4 +14.4 100 +11 +11 1018.7 1007.3
04 14.10 ЮЗ 15
{17}
100 м н/о +14.5 +14.5 100 +11 +11 1018.4 1007.0
05 14.10 ЮЗ 14
{17}
100 м н/о +14.4 +14.4 100 +11 +11 1019.0 1007.6
06 14.10 ЮЗ 15 100 м н/о +14.4 +14.4 100 +11 +11 1019.4 1008.0 +14.4 1
08 14.10 ЮЗ 14
{18}
100 м н/о +14.3 +14.3 100 +11 +11 1020.0 1008.6
07 14.10 ЮЗ 14
{17}
300 м н/о +14.3 +14.3 100 +11 +11 1018.9 1007.5
09 14.10 ЮЗ 12
{17}
100 м н/о +14.4 +14.4 100 +11 +11 1020.6 1009.2
10 14.10 ЮЗ 12
{17}
100 м н/о +14.3 +14.3 100 +11 +11 1020.9 1009.5
11 14.10 ЮЗ 12
{16}
5000 м н/о +14.4 +14.4 100 +11 +11 1021.5 1010.1
12 14.10 ЮЗ 12
{14}
11 км н/о +14.7 +14.7 100 +12 +12 1021.3 1009.8
14 14.10 ЮЗ 11
{13}
12 км н/о +14.7 +14.7 100 +12 +12 1021.5 1010.0
13 14.10 Ю 11
{14}
11 км н/о +15.0 +15.0 100 +12 +12 1021.4 1010.0
15 14.10 Ю 9
{13}
16 км н/о +14.6 +14.0 96 +12 +12 1021.3 1009.8
16 14.10 Ю 9 14 км н/о +14.3 +13.8 97 +12 +12 1021.2 1009.8
17 14.10 Ю 9 18 км н/о +14.4 +13.9 97 +12 +12 1021.2 1009.7
18 14.10 Ю 9 29 км н/о +14.4 +13.4 94 +12 +12 1020.7 1009.3 +15.1
20 14.10 Ю 8 16 км н/о +14.1 +13.8 98 +12 +12 1019.9 1008.4
19 14.10 Ю 7
{13}
27 км н/о +14.3 +13.3 94 +12 +12 1020.4 1008.9
21 14.10 Ю 7 10 км н/о +13.8 +13.8 100 +11 +11 1019.4 1007.9
22 14.10 Ю 6 9000 м н/о +13.8 +13.8 100 +11 +11 1018.4 1006.9
23 14.10 Ю 6 20 км н/о +14.0 +13.8 99 +12 +12 1018.1 1006.6
00 15.10 Ю 9 23 км н/о +14.0 +13.5 97 +11 +11 1017.6 1006.2
02 15.10 Ю 9 18 км н/о +13.7 +13.2 97 +11 +11 1016.3 1004.9
01 15.10 Ю 10 17 км н/о +13.9 +13.3 96 +11 +11 1017.0 1005.6
03 15.10 Ю 8 13 км н/о +13.8 +13.4 97 +11 +11 1015.5 1004.0
04 15.10 Ю 10
{13}
1000 м н/о +13.6 +13.6 100 +10 +10 1015.1 1003.7
05 15.10 ЮЗ 11
{14}
3500 м н/о +13.4 +13.4 100 +10 +10 1014.8 1003.4
06 15.10 ЮЗ 11 15 км н/о +13.4 +12.9 97 +10 +10 1014.7 1003.3 +13.2 0.2
08 15.10 ЮЗ 12
{17}
23 км н/о +13.7 +11.9 89 +10 +10 1014.7 1003.3
07 15.10 Ю 11
{15}
21 км н/о +13.5 +12.2 92 +10 +10 1014.4 1003.0
09 15.10 Ю 10
{14}
19 км н/о +13.7 +12.6 93 +11 +11 1014.9 1003.5
10 15.10 Ю 11
{13}
18 км н/о +13.9 +12.8 93 +11 +11 1014.9 1003.5
11 15.10 Ю 11
{14}
19 км н/о +14.1 +12.8 92 +11 +11 1014.9 1003.5
12 15.10 Ю 12
{15}
17 км н/о +14.6 +13.2 91 +12 +12 1014.5 1003.1
14 15.10 Ю 11
{14}
19 км н/о +14.3 +12.7 90 +11 +11 1014.3 1002.9
13 15.10 Ю 11
{15}
16 км н/о +14.5 +13.0 91 +12 +12 1014.5 1003.1
15 15.10 Ю 8
{13}
15 км н/о +14.2 +12.9 92 +12 +12 1014.0 1002.6
16 15.10 Ю 7 16 км н/о +14.1 +13.1 94 +12 +12 1014.0 1002.6
17 15.10 Ю 7 15 км н/о +14.1 +13.1 94 +12 +12 1013.9 1002.5
18 15.10 Ю 7 13 км н/о +14.0 +13.1 94 +12 +12 1013.9 1002.6 +14.7
20 15.10 ЮВ 5 9000 м н/о +14.0 +13.5 97 +12 +12 1014.0 1002.6
19 15.10 Ю 8 11 км н/о +14.0 +13.3 96 +11 +11 1014.1 1002.7
21 15.10 Ю 5 7000 м н/о +14.0 +13.6 97 +12 +12 1014.0 1002.6
22 15.10 Ю 5 7000 м н/о +14.1 +13.7 97 +12 +12 1013.9 1002.5
23 15.10 Ю 5 7000 м н/о +14.1 +13.7 97 +12 +12 1014.1 1002.7
00 16.10 ЮВ 4 5000 м н/о +14.1 +13.7 97 +13 +13 1013.8 1002.4
02 16.10 ЮВ 5 5000 м н/о +13.9 +13.7 99 +12 +12 1012.5 1001.1
01 16.10 Ю 6 6000 м н/о +14.1 +13.7 97 +12 +12 1014.3 1003.0
03 16.10 ЮВ 9 8000 м н/о +14.4 +13.8 96 +12 +12 1011.6 1000.2
04 16.10 ЮВ 7 8000 м н/о +14.2 +13.7 97 +12 +12 1010.5 999.2
05 16.10 В 6 8000 м н/о +14.1 +13.6 97 +12 +12 1008.8 997.5
06 16.10 В 7 12 км н/о +15.2 +13.0 87 +13 +13 1006.6 995.4 +13.5 0.2
08 16.10 ЮВ 8-14
{14}
23 км н/о +18.6 +12.8 69 +18 +18 1005.3 994.2
07 16.10 В 6 24 км н/о +16.8 +12.8 77 +16 +16 1006.0 994.8
09 16.10 Ю 13-20
{20}
19 км н/о +17.8 +13.8 77 +16 +16 1004.8 993.7
10 16.10 Ю 14-20
{21}
13 км н/о +17.3 +14.0 81 +15 +15 1004.8 993.6
11 16.10 Ю 18-27
{28}
13 км н/о +16.2 +11.4 73 +13 +13 1004.6 993.4
12 16.10 Ю 20 12 км н/о +15.1 +10.8 75 +12 +12 1004.4 993.2 0.2
14 16.10 Ю 26-34
{34}
7000 м н/о +14.7 +10.1 74 +11 +11 1001.9 990.7
13 16.10 Ю 20-29
{29}
11 км н/о +15.1 +10.1 72 +12 +12 1002.9 991.7
15 16.10 Ю 28-38
{40}
3600 м н/о +13.3 +10.1 81 +8 +8 1001.1 989.9
16 16.10 Ю 28-37
{38}
н/о н/о +13.1 +9.7 80
17 16.10 Ю 27-35
{39}
н/о н/о +12.9 +9.9 82
18 16.10 Ю 27-35
{37}
н/о н/о +12.8 +10.0 83 +19.2 0.2
20 16.10 ЮЗ 28-38
{38}
н/о н/о +12.7 +9.1 79
19 16.10 ЮЗ 27-33
{38}
н/о н/о +12.4 +10.2 86
21 16.10 ЮЗ 28-35
{37}
н/о н/о +12.8 +9.2 79
22 16.10 ЮЗ 27-34
{35}
11 км н/о +12.6 +8.9 78 +7 +7 1007.7 996.3
23 16.10 ЮЗ 25-32
{35}
14 км н/о +12.6 +9.1 79 +7 +7 1009.2 997.8
00 17.10 ЮЗ 22-29
{34}
15 км н/о +12.4 +8.7 78 +7 +7 1010.6 999.2
02 17.10 ЮЗ 16-23
{28}
17 км н/о +12.1 +8.6 79 +8 +8 1013.3 1001.9
01 17.10 ЮЗ 21 20 км н/о +12.4 +8.5 77 +8 +8 1011.9 1000.5
03 17.10 ЮЗ 18-23
{23}
23 км н/о +11.9 +8.6 80 +7 +7 1013.7 1002.3
04 17.10 ЮЗ 16
{23}
26 км н/о +11.7 +8.3 80 +7 +7 1014.2 1002.7
05 17.10 ЮЗ 16
{22}
25 км н/о +11.6 +8.2 80 +7 +7 1014.8 1003.3
06 17.10 З 15 29 км н/о +11.1 +7.6 79 +6 +6 1015.3 1003.8 +11.0
08 17.10 ЮЗ 13
{18}
27 км н/о +10.9 +7.9 82 +6 +6 1016.7 1005.1
07 17.10 ЮЗ 13
{20}
27 км н/о +10.9 +7.9 82 +6 +6 1015.9 1004.4
09 17.10 З 13
{17}
24 км н/о +11.4 +8.1 80 +7 +7 1017.0 1005.4
10 17.10 З 12
{17}
30 км н/о +12.0 +7.9 76 +8 +8 1017.7 1006.2
11 17.10 З 12
{15}
35 км н/о +12.5 +7.8 73 +9 +9 1018.3 1006.8
12 17.10 ЮЗ 10
{14}
30 км н/о +13.3 +8.1 71 +10 +10 1018.5 1007.0
14 17.10 ЮЗ 9 35 км н/о +13.0 +7.7 70 +10 +10 1017.9 1006.4
13 17.10 ЮЗ 9
{13}
35 км н/о +13.1 +7.6 69 +10 +10 1018.2 1006.7
15 17.10 ЮЗ 6 35 км н/о +13.0 +7.3 68 +11 +11 1017.8 1006.4
16 17.10 ЮЗ 6 35 км н/о +12.1 +7.3 72 +10 +10 1017.2 1005.7
17 17.10 ЮЗ 5 35 км н/о +11.5 +7.3 75 +9 +9 1017.0 1005.5
18 17.10 ЮЗ 3 20 км н/о +11.0 +6.8 75 +9 +9 1017.1 1005.5 +13.6
20 17.10 ЮЗ 3 20 км н/о +10.8 +7.7 81 +9 +9 1016.8 1005.2
19 17.10 ЮЗ 3 25 км н/о +10.9 +7.3 78 +9 +9 1016.8 1005.3
21 17.10 ЮЗ 3 18 км н/о +10.7 +7.4 80 +9 +9 1016.9 1005.4
22 17.10 ЮЗ 3 30 км н/о +10.4 +7.4 82 +8 +8 1016.9 1005.3
23 17.10 ЮЗ 3 30 км н/о +10.1 +7.2 82 +8 +8 1016.5 1004.9
00 18.10 Ю 2 35 км н/о +10.9 +7.6 80 +10 +10 1016.0 1004.5
02 18.10 СВ 2 23 км н/о +8.6 +7.3 92 +7 +7 1015.1 1003.5
01 18.10 В 3 25 км н/о +9.8 +7.7 87 +8 +8 1015.6 1004.0
03 18.10 В 3 28 км н/о +8.8 +8.0 95 +6 +6 1014.4 1002.9
04 18.10 В 3 30 км н/о +8.2 +7.4 95 +6 +6 1013.9 1002.3
05 18.10 В 3 30 км н/о +8.0 +7.1 94 +5 +5 1013.5 1001.9
06 18.10 В 4 35 км н/о +7.8 +6.8 93 +5 +5 1013.2 1001.5 +7.8
08 18.10 В 4 40 км н/о +8.7 +6.9 88 +6 +6 1012.9 1001.3
07 18.10 СВ 3 35 км н/о +8.0 +6.9 93 +5 +5 1013.0 1001.4
09 18.10 В 6 45 км н/о +9.6 +7.0 84 +6 +6 1012.4 1000.9
10 18.10 В 8 45 км н/о +10.9 +7.0 77 +7 +7 1011.6 1000.2
11 18.10 В 7 35 км н/о +11.9 +8.2 78 +9 +9 1011.2 999.7
12 18.10 ЮВ 5 45 км н/о +12.6 +8.7 77 +10 +10 1010.8 999.4
14 18.10 ЮВ 5 45 км н/о +12.1 +9.4 84 +10 +10 1010.1 998.7
13 18.10 ЮВ 5 40 км н/о +11.9 +8.8 81 +9 +9 1010.6 999.1
15 18.10 ЮВ 6 3000 м н/о +11.2 +10.4 95 +8 +8 1009.8 998.3
16 18.10 ЮВ 6 35 км н/о +11.7 +10.6 93 +9 +9 1009.5 998.0
17 18.10 ЮВ 8 30 км н/о +12.1 +10.9 92 +9 +9 1009.1 997.7
18 18.10 ЮВ 8 20 км н/о +12.3 +11.3 94 +9 +9 1008.7 997.3 +12.9 0.6
20 18.10 ЮВ 5 <100 м н/о +11.0 +10.5 97
19 18.10 ЮВ 7 21 км н/о +12.1 +11.1 94 +9 +9 1008.2 996.8
21 18.10 ЮВ 7 17 км н/о +12.8 +11.8 94 +10 +10 1007.8 996.5
22 18.10 ЮВ 8 19 км н/о +12.8 +11.6 92 +10 +10 1007.2 995.9
23 18.10 ЮВ 8 8000 м н/о +12.8 +11.7 93 +10 +10 1006.8 995.4
00 19.10 Ю 9 н/о н/о +12.8 +12.2 96 1006.6 995.2 0.2
02 19.10 Ю 8
{14}
н/о н/о +12.6 +12.4 99
01 19.10 Ю 10
{13}
н/о н/о +12.6 +12.2 97
03 19.10 Ю 7 11 км н/о +12.8 +12.3 97 +10 +10 1004.9 993.5
04 19.10 Ю 9
{14}
20 км н/о +12.9 +12.4 97 +10 +10 1004.0 992.7
05 19.10 ЮВ 8
{16}
16 км н/о +13.0 +12.3 96 +10 +10 1003.5 992.2
06 19.10 ЮВ 8 28 км н/о +13.2 +12.0 92 +10 +10 1002.7 991.4 +11.0 0.4
08 19.10 ЮВ 10
{15}
24 км н/о +13.2 +11.8 91 +10 +10 1002.4 991.1
07 19.10 ЮВ 10
{15}
25 км н/о +13.2 +11.8 91 +10 +10 1002.3 991.0
09 19.10 ЮВ 11
{15}
29 км н/о +13.1 +11.3 89 +10 +10 1001.7 990.4
10 19.10 ЮВ 8
{14}
28 км н/о +13.1 +11.2 88 +10 +10 1001.1 989.8
11 19.10 ЮВ 9-15
{16}
30 км н/о +13.2 +11.0 87 +10 +10 1000.2 988.9
12 19.10 ЮВ 7
{14}
30 км н/о +13.4 +11.0 85 +11 +11 999.1 987.9
14 19.10 ЮВ 8
{13}
14 км н/о +13.3 +11.7 90 +10 +10 996.5 985.3
13 19.10 ЮВ 8-13
{14}
30 км н/о +13.6 +11.2 85 +11 +11 997.7 986.4
15 19.10 ЮВ 8-13
{13}
14 км н/о +13.4 +12.1 92 +11 +11 995.5 984.3
16 19.10 ЮВ 8
{13}
30 км н/о +13.4 +12.3 93 +11 +11 994.3 983.2
17 19.10 ЮВ 8
{14}
35 км н/о +13.4 +11.2 87 +11 +11 993.3 982.1

 

Местоположение метеостанции Aberdaron (Великобритания): широта 52.78 долгота -4.73 высота над уровнем моря 94 м.

В архиве по умолчанию представлена погода в Aberdaron за последнюю неделю. Архивные данные за месяц целиком и за предыдущие месяцы, начиная с января 2011 года, Вы можете получить, выбрав интересующий диапазон дат из раскрывающегося списка и нажав кнопку "Ввод!".

Внимание! Время в таблицах - всемирное. Для получения местного времени необходимо прибавить поправку, которая в Aberdaron равна 0 ч.

Смотрите также архив погоды в соседних городах и на ближайших метеорологических станциях:

Погода в Valley (Великобритания) (54 км)
Погода в Mona (Великобритания) (58 км)
Погода в Capel Curig (Великобритания) (64 км)
Погода в Trawsgoed (Великобритания) (71 км)
Погода в Aberporth (Великобритания) (73 км)
Погода в Bala (Великобритания) (79 км)
Погода в Lake Vyrnwy (Великобритания) (85 км)
Погода в Rhyl (Великобритания) (98 км)
Погода в Sennybridge (Великобритания) (109 км)
Погода в Pembrey Sands (Великобритания) (120 км)

Пояснения к столбцам:

Ветер - указаны скорость ветра в м/с - средняя за 10 мин, порывы в срок и между сроками (в фигурных скобках) и направление, откуда дует ветер: С - северный, СВ - северо-восточный, В - восточный, ЮВ - юго-восточный, Ю - южный, ЮЗ - юго-западный, З - западный, СЗ - северо-западный.
Видимость - горизонтальная дальность видимости в метрах или километрах. При видимости от 1 до 10 км при отсутствии осадков обычно наблюдается дымка, при ухудшении видимости до 1 км и менее - туман. В сухую погоду видимость может ухудшаться дымом, пылью или мглою.
Явления - указаны атмосферные явления, наблюдавшиеся в срок или в последний час перед сроком; фигурными скобками обозначены явления, наблюдавшиеся между сроками (за 1-3 часа до срока); квадратными скобками обозначены град или гололедные отложения с указанием их диаметра в мм.
Облачность - указаны через наклонную черту общая и нижняя облачность в баллах и высота нижней границы облаков в метрах; квадратными скобками обозначены формы облаков: Ci - перистые, Cs - перисто-слоистые, Cc - перисто-кучевые, Ac - высококучевые, As - высокослоистые, Sc - слоисто-кучевые, Ns - слоисто-дождевые, Cu - кучевые, Cb - кучево-дождевые. Подробнее классификацию облаков см. в Атласе облаков (PDF).
T - Температура воздуха - температура, измеренная на высоте 2 м над землей.
Td - Температура точки росы - температура, при понижении до которой содержащийся в воздухе водяной пар достигнет насыщения.
f - Относительная влажность воздуха - влажноcть воздуха, измеренная на высоте 2 м над землей.
Te - Эффективная температура - температура, которую ощущает одетый по сезону человек в тени. Характеристика душности погоды. При расчете учитывается влияние влажности воздуха и скорости ветра на теплоощущения человека.
Tes - Эффективная температура на солнце - температура, которую ощущает человек, с поправкой на солнечный нагрев. Характеристика знойности погоды. Зависит от высоты солнца над горизонтом, облачности и скорости ветра. Ночью, в пасмурную погоду, а также при ветре 12 м/с и более поправка равна нулю.
P - Атмосферное давление - приведенное к уровню моря атмосферное давление.
Po - Атмосферное давление - измеренное на уровне метеостанции атмосферное давление.
Tmin - Минимальная температура - минимум температуры воздуха на высоте 2 м над землей.
Tmax - Максимальная температура - максимум температуры воздуха на высоте 2 м над землей.
R - Количество осадков - Количество выпавших осадков за период времени, мм. При наведении курсора мыши на число - период времени, за который выпало указанное количество осадков.
R24 - Количество осадков - Количество выпавших осадков за 24 часа, мм.
S - Снежный покров - Высота снежного покрова, см. При наведении курсора мыши на число - состояние снежного покрова и степень покрытия местности в баллах.